Regional Weather Roundup
Issued by NWS

Home | Current Version | Previous Version | Text Only | Print | Product List | Glossary Off
Versions: 1 2 3 4 5 6 7 8 9 10 11 12 13 14 15 16 17 18 19 20 21 22 23 24 25 26 27 28 29 30 31 32 33 34 35 36 37 38 39 40 41 42 43 44 45 46 47 48 49 50

000
ASUS45 KCYS 220010
RWRWY

WYOMING REGIONAL WEATHER ROUNDUP
NATIONAL WEATHER SERVICE CHEYENNE WY
500 PM MST FRI NOV 21 2014

NOTE:  "FAIR" INDICATES FEW OR NO CLOUDS BELOW 12,000 FEET
WITH NO SIGNIFICANT WEATHER AND/OR OBSTRUCTIONS TO VISIBILITY.

WYZ001-220100-
YELLOWSTONE NATIONAL PARK

CITY           SKY/WX    TMP DP  RH WIND       PRES   REMARKS
LK YELLOWSTONE   N/A     29  22  75 W8        29.95S WCI  21
6HR MIN TEMP:  29; 6HR MAX TEMP:  32;

W YELLOWSTONE  NOT AVBL

$$
WYZ002>013-054>058-071-098>099-220100-
NORTHERN WYOMING

CITY           SKY/WX    TMP DP  RH WIND       PRES   REMARKS
JACKSON        CLEAR     28  25  86 CALM      29.95F
CODY           PTCLDY    45  23  42 SW15      29.83F
GREYBULL       PTCLDY    26  20  77 VRB6      29.87S WCI  19
6HR MIN TEMP:  18; 6HR MAX TEMP:  32;

WORLAND        PTCLDY    25  21  85 SE3       29.88S
6HR MIN TEMP:  19; 6HR MAX TEMP:  34;

SHERIDAN       PTCLDY    36  26  67 S5        29.81F WCI  32
6HR MIN TEMP:  35; 6HR MAX TEMP:  52;

BUFFALO        CLEAR     34  22  61 SW8       29.84S WCI  27
6HR MIN TEMP:  34; 6HR MAX TEMP:  49;

GILLETTE       CLEAR     32  26  78 CALM      29.84R
6HR MIN TEMP:  32; 6HR MAX TEMP:  45;

HULETT           N/A    N/A N/A N/A MISG        N/A
NEWCASTLE      FAIR      32  27  80 CALM      29.87S

$$
WYZ014>020-022>026-101>103-220100-
CENTRAL WYOMING

CITY           SKY/WX    TMP DP  RH WIND       PRES   REMARKS
BIG PINEY      CLEAR     31  20  63 NE10      29.99R WCI  22
6HR MIN TEMP:  28; 6HR MAX TEMP:  42;

PINEDALE       CLEAR     30  21  69 N5        30.00S WCI  25
DUBOIS         FAIR      34  19  55 NW16G23   29.91R WCI  23
LANDER         NOT AVBL
RIVERTON       CLEAR     29  20  69 CALM      29.90S
6HR MIN TEMP:  25; 6HR MAX TEMP:  37;

CASPER         CLEAR     37  24  59 SW7       29.89R WCI  32
6HR MIN TEMP:  37; 6HR MAX TEMP:  47;

DOUGLAS        CLEAR     55  24  30 NW12      29.88R
6HR MIN TEMP:  48; 6HR MAX TEMP:  67;


$$
WYZ021-027>030-104>119-220100-
SOUTHERN WYOMING

CITY           SKY/WX    TMP DP  RH WIND       PRES   REMARKS
EVANSTON       CLEAR     38  21  50 W13       30.00R WCI  30
6HR MIN TEMP:  38; 6HR MAX TEMP:  45;

KEMMERER       CLEAR     36  23  60 W10       30.00S WCI  28
FORT BRIDGER   FAIR      40  24  52 W8        30.02R WCI  34
ROCK SPRINGS   CLEAR     37  19  48 W8        29.99S WCI  31
6HR MIN TEMP:  37; 6HR MAX TEMP:  44;

DIXON          FAIR      39  17  40 SW6       30.04R WCI  35
RAWLINS        CLEAR     37  19  48 SW10G20   29.98S WCI  30
6HR MIN TEMP:  37; 6HR MAX TEMP:  44;

SARATOGA       FAIR      34  21  60 SW9       30.00R WCI  26
LARAMIE        CLEAR     35  19  52 W9        29.96R WCI  28
6HR MIN TEMP:  35; 6HR MAX TEMP:  44;

CHEYENNE       PTCLDY    43  17  35 W12       29.94R
6HR MIN TEMP:  43; 6HR MAX TEMP:  51;

TORRINGTON     PTCLDY    44  20  38 W8        29.88R
6HR MIN TEMP:  44; 6HR MAX TEMP:  57;

PINE BLUFFS    FAIR      39  16  38 W7        29.92S WCI  34

$$


USA.gov is the U.S. government's official web portal to all federal, state and local government web resources and services.